Content
SEND FEEDBACK

Daily
Averages
Monthly
Summary
Saudi Arabia

QIZAN, SAUDI ARABIA


Home > Middle East > Saudi Arabia
Elevation: 10 feet     Latitude: 16 54N     Longitude: 42 35E

WEATHER
 
SELECT A DAY
Number of Records: 170,737;   Date Range: 7/1/96 - 8/12/14
 
SHARE

PRINT THIS DATA

[ ← Previous Day ]
WEATHER ALMANAC - JANUARY 31, 2013
[ Next Day → ]
[ °C ]   °F
Weather ElementAverageHighLow
Temperature80.8 °F86 °F (2:00 pm)75 °F (6:00 am)
Dewpoint69.8 °F73.4 °F (9:00 pm)66.2 °F (4:00 pm)
Humidity68.2 %83 % (4:00 am)47 % (12:00 pm)
Barometer29.88 in29.93 in (9:00 am)29.83 in (2:00 am)
Wind Speed5.8 mph11.5 mph (12:00 pm)
Weather ElementAverage
Visibility6.2 mi
Wind DirectionSSE (159.7 °)

Weather ElementTotal
Precipitation---
Cooling Degree Days15.5 (Base 65)
Growing Degree Days30.5 (Base 50)
Averaged from 31 records on January 31, 2013
WEATHER CONDITIONS BREAKOUT
WIND DIRECTION BREAKOUT
WEATHER BY HOUR - JANUARY 31, 2013
[ °C ]   °F
Local TimeTemperatureDewpointHumidityBarometerVisibilityWind DirectionWind SpeedGust SpeedPrecipitationEventsConditions
12:00 AM78.8 °F69.8 °F74 %29.86 inCalmClear
1:00 AM77.0 °F69.8 °F78 %29.86 in6.2 miCalmPartly Cloudy
2:00 AM77.0 °F69.8 °F78 %29.83 in6.2 miEast (90°)3.5 mphPartly Cloudy
3:00 AM76.0 °F70.0 °F76 %29.83 in6.0 miNNE (30°)3.5 mphScattered Clouds
3:00 AM77.0 °F69.8 °F78 %29.83 in6.2 miNNE (30°)3.5 mphPartly Cloudy
4:00 AM75.2 °F69.8 °F83 %29.83 in6.2 miENE (60°)4.6 mphPartly Cloudy
5:00 AM75.2 °F69.8 °F83 %29.83 in6.2 miCalmPartly Cloudy
6:00 AM75.2 °F69.8 °F83 %29.83 in6.2 miEast (100°)3.5 mphPartly Cloudy
6:00 AM75.0 °F70.0 °F79 %29.84 in6.0 miEast (100°)3.5 mphScattered Clouds
7:00 AM75.2 °F69.8 °F83 %29.89 in6.2 miCalmPartly Cloudy
8:00 AM77.0 °F68.0 °F74 %29.92 in6.2 miSE (130°)3.5 mphPartly Cloudy
9:00 AM81.0 °F68.0 °F56 %29.93 in6.0 miESE (120°)4.6 mph
9:00 AM80.6 °F68.0 °F65 %29.92 inESE (120°)4.6 mphClear
10:00 AM82.4 °F68.0 °F62 %29.92 in6.2 miSouth (170°)5.8 mphPartly Cloudy
11:00 AM84.2 °F68.0 °F58 %29.92 in6.2 miSouth (180°)9.2 mphPartly Cloudy
12:00 PM84.2 °F68.0 °F58 %29.92 in6.2 miSouth (180°)11.5 mphPartly Cloudy
12:00 PM85.0 °F68.0 °F47 %29.89 in6.0 miSouth (180°)11.5 mphScattered Clouds
1:00 PM84.2 °F68.0 °F58 %29.89 in6.2 miSSW (210°)11.5 mphPartly Cloudy
2:00 PM86.0 °F69.8 °F58 %29.86 in6.2 miSSW (210°)11.5 mphScattered Clouds
3:00 PM85.0 °F68.0 °F47 %29.83 in6.0 miSW (220°)11.5 mphPartly Cloudy
3:00 PM86.0 °F68.0 °F55 %29.86 in6.2 miSW (220°)11.5 mphScattered Clouds
4:00 PM86.0 °F66.2 °F51 %29.86 in6.2 miWSW (240°)9.2 mphScattered Clouds
5:00 PM84.2 °F69.8 °F62 %29.86 in6.2 miWest (260°)8.1 mphMostly Cloudy
6:00 PM82.4 °F71.6 °F70 %29.89 in6.2 miWSW (240°)6.9 mphMostly Cloudy
6:00 PM83.0 °F72.0 °F61 %29.87 in6.0 miWSW (240°)6.9 mphScattered Clouds
7:00 PM82.4 °F71.6 °F70 %29.89 in6.2 miSouth (180°)5.8 mphScattered Clouds
8:00 PM82.4 °F71.6 °F70 %29.89 in6.2 miWSW (240°)3.5 mphPartly Cloudy
9:00 PM82.0 °F73.0 °F69 %29.89 in6.0 miWNW (290°)4.6 mphScattered Clouds
9:00 PM82.4 °F73.4 °F74 %29.89 in6.2 miWNW (290°)4.6 mphPartly Cloudy
10:00 PM82.4 °F73.4 °F74 %29.92 in6.2 miWNW (290°)5.8 mphPartly Cloudy
11:00 PM80.6 °F73.4 °F79 %29.92 inNNW (330°)5.8 mphClear
Hourly data recorded from OEGN, located miles away from Qizan, Saudi Arabia







STORIES FROM OUR PARTNERS